Temperature
-0 0 0 0 0 -0 -1 -1 -1 -0 -1 -0 -2 -3 -3 -3 -3 -3 -3 -3 -3 -3 -3 -3 -2 -2 -2 -2 -2 -2 -2 -2 -2 -2 -2 -2 -1 -1 -1 -1 -1 -1 -1 -1
-1 -0 -1 -1 -1 -1 -1 -1 -2 -1 -1 -2 -2 -2 -3 -3 -4 -4 -4 -4 -4 -3 -3 -3 -3 -3 -3 -3 -2 -3 -3 -3 -2 -2 -2 -2 -2 -2 -2 -2 -2 -2 -2 -2
-1 -1 -1 -1 -2 -1 -2 -2 -2 -2 -2 -3 -4 -4 -4 -4 -4 -4 -4 -4 -4 -4 -4 -4 -4 -3 -3 -3 -3 -3 -3 -3 -3 -3 -3 -3 -3 -3 -3 -3 -2 -2 -2 -2
-2 -2 -2 -1 -2 -2 -2 -3 -4 -4 -4 -4 -4 -4 -4 -3 -4 -4 -4 -4 -5 -5 -4 -4 -4 -4 -4 -4 -3 -3 -4 -3 -3 -3 -3 -3 -3 -3 -3 -3 -3 -3 -3 -3
-3 -3 -2 -2 -3 -4 -3 -3 -5 -4 -4 -5 -5 -5 -5 -4 -4 -4 -5 -5 -5 -5 -5 -5 -5 -4 -4 -4 -4 -4 -4 -4 -4 -4 -4 -4 -4 -4 -4 -4 -4 -4 -3 -3
-3 -3 -2 -2 -4 -4 -3 -4 -5 -5 -5 -6 -6 -6 -5 -5 -5 -5 -5 -5 -5 -5 -5 -5 -5 -5 -5 -5 -5 -4 -4 -4 -4 -5 -5 -5 -5 -5 -5 -5 -4 -4 -4 -4
-4 -4 -3 -4 -5 -4 -3 -3 -5 -5 -5 -6 -6 -6 -5 -5 -5 -6 -6 -6 -6 -6 -6 -6 -6 -5 -5 -5 -5 -5 -5 -5 -5 -5 -5 -5 -5 -5 -5 -5 -5 -5 -5 -5
-5 -4 -3 -5 -6 -5 -5 -5 -5 -5 -6 -6 -6 -6 -6 -6 -6 -6 -6 -6 -6 -7 -6 -6 -6 -6 -6 -6 -6 -6 -6 -6 -6 -6 -6 -6 -6 -6 -6 -6 -6 -6 -6 -5
-5 -4 -5 -6 -6 -5 -5 -6 -6 -6 -6 -6 -6 -7 -7 -7 -7 -7 -7 -7 -7 -7 -7 -7 -7 -7 -7 -7 -7 -6 -7 -7 -7 -7 -7 -7 -6 -6 -6 -6 -6 -6 -6 -6
-7 -7 -7 -6 -6 -5 -5 -6 -6 -6 -6 -6 -7 -7 -7 -7 -7 -8 -8 -8 -8 -8 -8 -8 -8 -7 -7 -7 -7 -7 -7 -7 -7 -7 -7 -7 -7 -7 -7 -7 -7 -7 -7 -7
-7 -8 -8 -7 -6 -6 -6 -6 -6 -7 -7 -7 -7 -7 -8 -8 -8 -8 -8 -8 -8 -8 -8 -8 -8 -8 -8 -8 -8 -8 -8 -8 -8 -8 -8 -8 -8 -8 -8 -7 -7 -7 -7 -7
-6 -7 -8 -7 -6 -6 -7 -7 -7 -7 -8 -8 -8 -8 -8 -8 -8 -9 -9 -9 -9 -9 -9 -9 -9 -8 -8 -8 -8 -8 -8 -8 -9 -9 -9 -9 -9 -8 -8 -8 -8 -8 -8 -8
-6 -6 -7 -7 -7 -7 -7 -7 -8 -8 -8 -8 -8 -9 -9 -9 -9 -9 -9 -9 -9 -9 -9 -9 -9 -9 -9 -9 -9 -9 -9 -9 -9 -9 -9 -9 -9 -9 -9 -9 -8 -8 -9 -9
-7 -7 -8 -8 -8 -8 -8 -8 -8 -8 -9 -9 -9 -9 -9 -9 -9 -10 -10 -10 -10 -10 -10 -10 -10 -10 -10 -10 -10 -10 -10 -10 -10 -10 -10 -10 -10 -10 -10 -10 -9 -9 -9 -9
-8 -8 -8 -8 -9 -9 -9 -9 -9 -9 -9 -10 -10 -10 -10 -10 -10 -10 -10 -10 -10 -10 -11 -11 -11 -10 -10 -10 -10 -10 -10 -10 -10 -10 -10 -10 -10 -10 -10 -10 -10 -10 -10 -10
-9 -9 -9 -9 -10 -10 -10 -10 -10 -10 -10 -10 -10 -10 -10 -11 -11 -11 -11 -11 -11 -11 -11 -11 -11 -11 -11 -11 -11 -11 -11 -11 -11 -11 -11 -11 -11 -11 -11 -11 -11 -11 -11 -11
-10 -10 -10 -10 -10 -10 -10 -10 -10 -10 -10 -11 -11 -11 -11 -11 -11 -12 -12 -12 -12 -12 -12 -12 -12 -12 -12 -12 -11 -11 -11 -11 -12 -12 -12 -12 -12 -12 -12 -12 -12 -12 -12 -12
-10 -10 -10 -10 -11 -11 -11 -11 -11 -11 -11 -11 -11 -12 -12 -12 -12 -12 -12 -12 -12 -12 -12 -12 -12 -12 -12 -12 -12 -12 -12 -12 -12 -12 -12 -12 -12 -12 -12 -12 -12 -12 -12 -12
-10 -10 -10 -11 -11 -11 -11 -11 -11 -11 -11 -12 -12 -12 -12 -12 -13 -13 -13 -13 -13 -13 -13 -13 -13 -13 -13 -13 -13 -13 -13 -13 -13 -13 -13 -13 -13 -13 -13 -13 -13 -13 -13 -13
-11 -11 -11 -11 -11 -11 -11 -11 -12 -12 -12 -12 -12 -13 -13 -13 -13 -13 -13 -13 -13 -13 -13 -13 -13 -13 -13 -13 -13 -13 -13 -13 -13 -13 -13 -13 -13 -13 -13 -13 -13 -13 -13 -13
-11 -11 -11 -11 -12 -12 -12 -12 -12 -12 -12 -13 -13 -13 -13 -13 -13 -13 -14 -14 -13 -14 -14 -14 -14 -14 -14 -14 -14 -14 -14 -14 -14 -14 -14 -14 -14 -14 -14 -14 -14 -14 -14 -14
-12 -12 -12 -12 -12 -12 -13 -13 -13 -13 -13 -13 -13 -13 -13 -14 -14 -14 -14 -14 -14 -14 -14 -14 -14 -14 -14 -14 -14 -14 -14 -14 -14 -14 -14 -14 -14 -14 -14 -14 -14 -14 -14 -14
-13 -13 -13 -13 -13 -13 -13 -13 -13 -13 -13 -14 -14 -14 -14 -14 -14 -14 -14 -14 -14 -15 -15 -15 -15 -15 -15 -14 -14 -14 -15 -15 -15 -15 -15 -15 -15 -15 -15 -15 -15 -15 -14 -14
-13 -13 -13 -13 -14 -14 -14 -14 -14 -14 -14 -14 -14 -14 -14 -14 -14 -15 -15 -15 -15 -15 -15 -15 -15 -15 -15 -15 -15 -15 -15 -15 -15 -15 -15 -15 -15 -15 -15 -15 -15 -15 -15 -15
-14 -14 -14 -14 -14 -14 -14 -14 -14 -14 -14 -14 -14 -15 -15 -15 -15 -15 -15 -15 -15 -15 -15 -15 -15 -15 -15 -15 -15 -15 -15 -15 -15 -15 -15 -15 -15 -15 -15 -15 -15 -15 -15 -15
-14 -14 -14 -14 -15 -15 -15 -15 -15 -15 -15 -15 -15 -15 -15 -15 -15 -16 -16 -16 -16 -16 -16 -16 -16 -16 -16 -16 -16 -16 -16 -16 -16 -16 -16 -16 -16 -16 -16 -15 -15 -15 -15 -15
-15 -15 -15 -15 -15 -15 -15 -15 -15 -15 -15 -16 -16 -16 -16 -16 -16 -16 -16 -16 -16 -16 -16 -16 -16 -16 -16 -16 -16 -16 -16 -16 -16 -16 -16 -16 -16 -16 -16 -16 -16 -16 -16 -15
Wind_Speed
7 6 4 6 8 8 9 9 9 9 10 11 6 6 6 5 4 3 3 4 4 4 4 3 3 3 3 3 2 2 2 2 2 2 2 2 2 3 3 4 4 4 4 4
5 5 5 7 9 8 9 8 10 10 12 7 5 3 4 4 3 4 4 5 4 4 4 4 4 4 3 3 3 2 2 2 2 1 1 2 2 3 3 4 4 4 4 5
4 2 3 8 8 8 6 6 8 12 12 4 4 5 6 5 4 4 5 5 5 5 5 5 5 4 4 4 3 2 2 2 2 2 2 2 2 2 3 4 4 4 4 4
2 1 6 7 2 5 7 8 8 7 6 5 6 5 5 4 3 4 4 5 5 5 5 5 4 4 3 3 2 2 2 2 2 2 2 2 2 3 3 3 4 4 4 5
2 4 7 6 3 4 5 7 6 7 6 4 2 3 4 2 2 3 4 4 4 4 5 4 4 3 2 1 1 1 2 2 2 2 3 3 3 3 3 3 3 4 4 4
3 4 7 6 2 1 2 6 3 3 4 3 0 2 5 3 3 4 4 3 3 3 3 3 3 2 1 1 1 2 2 3 2 2 3 4 4 3 3 3 4 3 4 4
6 6 8 5 2 2 4 6 2 2 3 3 4 5 4 3 3 3 3 3 3 2 3 3 2 1 1 1 2 3 2 2 2 2 3 3 3 3 2 2 2 3 3 3
5 6 9 2 3 5 5 2 1 2 3 3 4 4 4 3 3 2 3 3 3 2 3 3 2 0 1 2 3 2 1 1 2 2 2 2 2 2 2 3 3 3 3 3
8 7 2 2 4 3 1 2 3 3 3 3 3 4 4 3 3 2 2 3 2 2 3 3 2 1 1 3 2 1 1 1 2 2 2 1 2 3 2 3 3 3 3 3
4 6 4 4 3 3 2 3 3 3 3 3 4 4 3 3 2 2 3 3 2 2 2 3 3 2 2 2 2 1 1 1 1 1 1 1 2 2 3 3 3 3 3 3
5 5 4 4 5 4 3 3 2 2 3 3 3 3 3 2 2 2 2 2 2 1 2 3 3 3 3 2 1 0 1 1 1 1 1 1 2 1 2 3 4 4 3 4
7 5 5 5 4 3 3 4 4 3 2 2 2 3 2 2 2 2 2 1 2 2 2 2 2 3 3 2 1 0 1 1 1 1 1 1 1 1 2 2 2 3 3 3
7 4 4 4 3 2 2 3 2 2 2 2 1 1 1 1 1 1 1 1 1 2 2 2 2 3 3 3 1 0 1 1 1 1 1 1 1 1 1 2 2 2 3 3
4 2 3 3 3 2 1 1 1 1 1 1 1 1 1 1 1 1 1 1 1 1 2 2 2 3 4 3 2 1 1 1 1 1 1 1 1 1 1 1 1 2 2 3
4 3 4 2 0 0 1 1 1 1 1 2 2 1 1 0 1 1 1 1 2 2 2 2 3 4 4 3 2 2 1 1 1 0 1 1 1 1 1 1 1 1 2 3
3 1 1 2 2 1 0 0 1 2 1 1 1 1 1 0 1 1 2 2 1 1 2 2 3 3 3 3 3 2 2 2 2 1 1 1 0 1 1 1 1 1 2 2
1 2 2 2 3 2 2 2 2 2 1 1 1 1 0 1 2 2 2 2 1 2 2 2 3 3 3 2 2 1 1 2 2 2 1 1 1 1 1 1 1 1 2 2
3 3 3 3 3 3 2 2 1 1 1 2 1 0 1 1 0 1 1 2 2 3 3 3 3 3 2 2 2 1 1 1 1 1 1 1 1 1 1 1 1 2 2 2
1 1 1 2 2 2 2 2 2 1 1 0 1 1 1 1 1 1 1 1 2 3 4 4 4 3 2 2 2 1 1 1 1 1 1 1 1 1 1 1 1 2 2 2
1 1 0 0 0 1 1 1 1 1 1 1 1 1 0 1 1 1 1 1 2 3 3 3 3 2 2 2 3 1 1 1 1 1 1 1 1 2 2 2 2 2 2 2
1 1 1 0 0 0 1 1 1 1 1 1 2 2 2 2 1 1 1 2 3 3 2 4 2 2 2 2 2 1 0 1 1 1 1 1 2 2 2 2 2 2 2 2
1 1 1 1 1 1 1 0 1 1 1 0 1 1 1 1 1 1 2 2 3 4 2 2 2 3 3 2 1 0 0 1 1 1 1 2 2 2 2 2 2 2 2 2
1 1 1 1 1 1 1 0 0 1 1 1 1 1 2 2 1 1 3 2 2 4 2 2 3 4 3 2 1 1 1 1 1 2 2 2 2 2 3 3 3 3 3 3
1 1 1 1 0 0 1 1 1 1 1 1 1 2 2 1 2 2 2 4 5 4 2 3 5 4 3 1 1 1 1 2 2 2 2 2 3 3 3 3 3 4 3 4
1 1 0 0 0 1 1 1 1 1 1 1 2 2 2 1 2 2 2 3 4 4 2 4 5 5 3 1 1 2 2 2 3 3 3 3 3 3 4 4 4 4 4 4
1 1 1 1 1 1 1 1 1 1 1 1 2 2 2 1 2 2 2 2 3 4 3 2 3 4 2 2 2 3 3 4 4 4 3 4 4 4 4 4 5 5 5 5
1 1 1 1 1 1 1 1 1 2 2 2 2 2 2 2 1 1 2 2 2 2 2 2 2 2 2 3 3 3 3 3 4 4 4 4 4 5 5 6 6 6 6 6
Wind_Direction
253 260 240 245 246 222 213 217 226 247 250 260 260 264 275 287 298 310 314 312 304 295 290 289 288 292 294 287 279 256 234 234 239 244 258 248 221 208 201 198 202 200 202 211
265 256 252 263 256 238 232 232 239 256 265 266 276 272 276 279 272 276 285 289 295 300 300 294 285 284 291 284 271 238 220 239 247 242 250 242 225 210 202 203 204 200 206 213
255 271 318 266 242 226 226 222 215 238 250 269 282 270 268 263 254 261 270 280 282 284 283 283 279 272 272 269 255 225 223 238 245 245 257 258 240 216 214 209 200 207 214 216
236 119 239 248 197 208 228 243 226 233 257 256 257 276 285 257 237 263 278 284 285 284 285 284 286 281 278 262 230 219 229 237 239 243 253 260 240 226 224 215 206 211 217 219
193 233 265 275 248 197 213 258 230 235 260 281 313 326 294 278 280 273 278 280 277 277 279 281 283 282 270 254 229 231 247 248 242 232 240 245 242 237 228 218 222 221 220 218
195 221 243 250 251 247 151 267 251 226 247 257 41 278 272 289 305 301 300 297 295 301 299 286 282 283 236 238 241 255 262 264 258 238 237 239 240 238 233 220 224 227 233 227
217 234 260 256 245 123 178 256 288 238 244 229 230 246 271 294 301 300 308 311 313 311 302 288 287 274 222 232 255 271 282 281 276 256 246 239 238 229 219 219 219 228 234 242
196 222 253 208 147 185 225 292 288 267 254 248 261 283 292 293 294 306 322 326 324 317 310 311 312 283 277 279 280 282 274 276 279 277 271 247 224 227 212 200 205 223 225 244
200 218 249 175 204 235 224 247 268 263 266 248 259 271 277 285 290 302 307 312 318 311 314 323 318 267 258 290 297 267 255 267 268 275 279 263 218 213 204 201 205 218 219 231
244 256 260 256 264 289 273 258 267 260 260 247 251 258 267 271 286 300 306 306 315 318 322 322 320 312 291 300 309 256 238 264 262 253 264 270 256 226 205 207 210 217 226 231
250 268 297 268 253 260 275 280 279 272 263 250 240 255 259 264 269 277 296 314 314 297 297 308 325 330 327 327 333 270 254 258 266 263 253 267 271 248 231 227 222 222 223 218
239 228 228 253 247 241 249 259 256 261 281 279 243 247 256 251 259 274 298 319 327 330 330 328 337 337 338 338 350 170 280 288 282 278 273 273 276 327 324 285 288 285 269 252
244 255 250 257 262 253 247 259 264 256 253 271 280 255 242 256 268 294 308 319 316 319 329 337 343 342 340 338 332 269 250 287 285 287 279 269 267 273 312 330 327 315 305 295
248 251 260 262 271 287 288 312 15 25 9 1 354 9 28 24 7 328 302 305 326 357 358 355 351 340 336 342 344 344 326 307 304 270 264 259 262 264 264 275 303 321 321 312
277 254 242 254 261 8 50 65 57 2 1 14 30 31 31 15 318 323 343 1 19 19 4 358 349 337 342 346 346 355 357 345 329 310 306 290 279 273 272 281 283 303 324 329
301 322 199 202 232 253 248 190 233 262 284 314 337 322 319 358 31 27 27 33 39 349 333 336 329 331 336 342 347 356 355 345 347 348 335 332 315 285 285 286 288 295 301 308
214 241 232 238 241 243 241 241 237 241 247 257 264 281 33 58 48 30 6 358 343 318 318 320 319 329 336 339 344 345 344 339 346 349 342 321 299 284 281 277 276 284 292 297
238 246 236 226 230 233 244 248 246 241 244 258 272 131 134 141 232 298 328 352 356 348 333 323 323 328 337 341 344 344 341 336 337 328 314 299 296 279 271 272 280 289 306 314
309 265 251 232 224 214 222 232 237 234 238 204 179 203 223 249 270 304 347 4 343 325 319 316 326 342 339 333 344 354 358 343 327 321 313 299 314 309 297 288 286 290 300 313
359 3 8 355 73 178 212 223 209 202 200 166 164 171 272 291 291 300 319 292 278 277 289 310 319 324 323 321 331 0 352 318 307 306 308 299 298 302 303 299 294 295 303 304
327 326 321 296 287 271 229 198 184 199 198 165 180 211 241 272 273 254 280 302 310 305 300 312 323 313 314 314 312 344 308 299 306 311 305 297 295 296 299 302 301 299 301 302
289 276 273 269 259 298 304 226 184 179 163 182 228 233 247 277 281 279 269 270 292 311 325 310 302 303 318 327 356 352 327 312 306 309 307 301 295 293 297 299 295 295 298 296
275 264 266 259 246 269 340 3 260 198 208 225 241 249 255 264 266 270 292 293 293 306 319 302 306 316 332 1 12 346 328 311 302 299 295 292 288 285 284 286 286 288 288 288
280 290 286 285 137 106 332 314 306 282 257 265 265 260 256 273 289 275 267 294 308 312 318 313 321 326 337 12 343 306 294 288 285 285 285 287 287 286 282 280 281 282 281 282
309 306 305 172 192 260 269 288 319 311 301 300 298 290 277 259 259 281 286 291 303 317 322 318 323 329 340 325 298 285 282 276 271 271 271 276 278 279 279 279 279 279 278 275
321 304 287 269 261 266 270 265 280 286 286 299 310 306 300 295 285 286 294 298 299 315 324 318 318 319 315 298 288 284 280 286 294 291 282 278 277 276 276 277 277 274 274 273
8 11 4 356 344 326 313 294 280 284 283 280 296 306 307 310 310 305 303 305 305 307 305 302 297 294 293 291 289 287 284 281 279 277 277 275 273 272 273 274 273 272 272 272
Height
1479 1476 1476 1476 1474 1475 1476 1475 1476 1469 1468 1463 1464 1465 1463 1462 1461 1459 1458 1457 1456 1455 1454 1454 1453 1452 1452 1452 1452 1453 1453 1453 1454 1454 1455 1456 1457 1458 1460 1462 1463 1465 1468 1469
1479 1475 1475 1474 1471 1471 1471 1471 1471 1468 1465 1460 1462 1461 1460 1459 1458 1457 1456 1455 1454 1452 1451 1450 1449 1449 1448 1448 1448 1449 1449 1449 1450 1451 1452 1452 1453 1454 1455 1457 1459 1461 1462 1464
1477 1474 1474 1472 1467 1467 1467 1466 1466 1464 1460 1459 1459 1458 1457 1456 1455 1454 1453 1452 1451 1449 1448 1447 1446 1445 1444 1444 1444 1445 1445 1445 1446 1447 1447 1448 1449 1450 1451 1452 1454 1455 1457 1459
1479 1479 1478 1463 1461 1461 1461 1460 1460 1458 1456 1456 1455 1454 1453 1453 1452 1451 1450 1449 1447 1446 1445 1444 1443 1442 1441 1441 1441 1441 1441 1441 1442 1442 1443 1444 1445 1446 1447 1448 1449 1450 1452 1454
1479 1479 1470 1463 1460 1460 1461 1458 1456 1455 1454 1454 1453 1452 1450 1450 1449 1449 1447 1446 1445 1443 1442 1440 1439 1438 1438 1437 1437 1437 1437 1438 1438 1439 1440 1440 1441 1442 1443 1444 1444 1446 1447 1449
1476 1475 1467 1457 1457 1456 1458 1457 1452 1451 1451 1452 1452 1453 1449 1447 1446 1445 1444 1443 1441 1440 1438 1437 1435 1434 1433 1433 1433 1433 1434 1434 1434 1435 1436 1436 1436 1437 1438 1439 1440 1441 1443 1444
1473 1472 1463 1457 1456 1456 1460 1453 1450 1449 1449 1450 1450 1449 1447 1445 1444 1443 1441 1439 1438 1436 1435 1433 1431 1431 1430 1430 1430 1430 1431 1431 1431 1432 1432 1432 1433 1433 1434 1435 1436 1437 1438 1439
1471 1470 1461 1454 1455 1455 1452 1449 1448 1447 1447 1447 1446 1445 1444 1443 1441 1439 1438 1436 1435 1433 1432 1430 1429 1428 1427 1427 1427 1428 1428 1428 1428 1428 1428 1428 1429 1429 1431 1431 1432 1433 1433 1434
1460 1457 1452 1451 1450 1449 1448 1447 1446 1445 1445 1444 1443 1442 1441 1440 1438 1437 1435 1434 1432 1431 1429 1428 1427 1426 1425 1424 1424 1424 1424 1424 1425 1425 1425 1425 1425 1426 1427 1428 1428 1429 1429 1430
1456 1451 1450 1448 1447 1447 1446 1445 1444 1443 1443 1442 1440 1439 1438 1437 1436 1434 1433 1432 1430 1429 1427 1425 1424 1423 1422 1422 1421 1421 1421 1421 1422 1422 1422 1422 1422 1423 1423 1424 1424 1425 1425 1426
1453 1449 1447 1445 1445 1444 1443 1443 1442 1441 1440 1439 1438 1436 1436 1434 1433 1432 1431 1430 1428 1427 1425 1424 1423 1421 1420 1420 1419 1419 1418 1419 1419 1419 1419 1418 1419 1419 1420 1421 1422 1422 1422 1423
1447 1445 1445 1442 1442 1442 1441 1440 1439 1438 1436 1436 1435 1434 1433 1432 1431 1430 1429 1427 1426 1425 1423 1422 1421 1419 1419 1418 1417 1416 1416 1416 1416 1416 1416 1416 1416 1416 1417 1418 1418 1419 1419 1420
1442 1441 1440 1439 1439 1439 1438 1437 1436 1435 1434 1433 1432 1431 1430 1429 1428 1428 1426 1425 1424 1423 1422 1420 1419 1418 1417 1416 1415 1414 1414 1414 1413 1413 1413 1413 1413 1413 1413 1414 1415 1415 1416 1416
1439 1438 1437 1436 1436 1436 1435 1434 1434 1433 1432 1431 1430 1429 1428 1427 1426 1425 1424 1423 1422 1421 1420 1419 1417 1416 1415 1414 1414 1413 1412 1412 1412 1412 1412 1412 1411 1411 1411 1411 1411 1411 1412 1413
1436 1435 1434 1434 1433 1433 1433 1432 1431 1430 1430 1429 1428 1427 1426 1425 1424 1424 1423 1422 1421 1420 1418 1417 1416 1415 1414 1413 1412 1411 1411 1410 1410 1410 1410 1410 1410 1410 1409 1409 1409 1409 1409 1410
1432 1432 1432 1431 1431 1430 1430 1429 1429 1428 1428 1427 1426 1425 1425 1424 1423 1422 1421 1421 1419 1418 1417 1416 1415 1414 1413 1412 1411 1410 1409 1409 1409 1409 1408 1408 1408 1408 1408 1408 1407 1407 1407 1407
1430 1429 1429 1428 1428 1428 1428 1427 1427 1426 1426 1425 1425 1424 1423 1422 1421 1421 1420 1419 1418 1417 1416 1415 1414 1413 1412 1411 1410 1409 1408 1408 1407 1407 1407 1407 1406 1406 1406 1406 1405 1405 1405 1405
1429 1428 1428 1427 1426 1426 1426 1426 1425 1425 1424 1424 1423 1422 1421 1420 1420 1419 1419 1418 1417 1416 1415 1414 1413 1412 1411 1410 1409 1408 1407 1407 1406 1406 1405 1405 1404 1404 1404 1404 1403 1403 1403 1403
1427 1426 1425 1425 1425 1424 1424 1424 1423 1423 1422 1422 1421 1421 1420 1419 1419 1418 1417 1416 1415 1414 1413 1413 1412 1411 1410 1409 1408 1407 1406 1406 1405 1404 1404 1403 1403 1403 1402 1402 1401 1401 1400 1400
1425 1425 1424 1423 1423 1423 1422 1422 1421 1421 1420 1420 1420 1419 1418 1418 1417 1416 1415 1414 1414 1413 1412 1412 1411 1410 1409 1408 1407 1406 1405 1405 1404 1403 1402 1401 1401 1400 1400 1399 1399 1398 1398 1397
1424 1423 1423 1422 1421 1421 1420 1420 1419 1419 1419 1418 1418 1417 1417 1417 1416 1415 1414 1413 1413 1412 1411 1410 1409 1408 1407 1406 1406 1405 1404 1403 1402 1401 1401 1400 1399 1398 1397 1397 1396 1396 1395 1394
1423 1422 1421 1421 1420 1419 1419 1418 1418 1417 1417 1416 1416 1416 1415 1415 1414 1413 1413 1412 1411 1410 1409 1408 1407 1407 1406 1405 1404 1403 1402 1401 1400 1400 1399 1398 1397 1396 1395 1394 1394 1393 1392 1391
1421 1421 1420 1419 1418 1418 1417 1417 1416 1416 1415 1415 1414 1414 1413 1413 1412 1411 1411 1410 1409 1408 1407 1407 1406 1405 1404 1403 1402 1401 1400 1399 1398 1397 1397 1396 1395 1394 1392 1392 1391 1390 1389 1388
1420 1419 1418 1417 1417 1416 1415 1415 1415 1414 1414 1413 1413 1413 1412 1411 1410 1410 1409 1408 1407 1406 1405 1405 1404 1403 1402 1401 1400 1399 1398 1397 1396 1395 1394 1393 1392 1391 1390 1389 1388 1387 1386 1385
1418 1417 1416 1416 1415 1414 1413 1413 1412 1412 1412 1411 1411 1411 1410 1409 1409 1408 1407 1406 1405 1404 1403 1402 1402 1401 1400 1399 1398 1397 1395 1394 1393 1392 1391 1390 1389 1388 1387 1386 1384 1383 1382 1382
1416 1415 1415 1414 1413 1412 1412 1411 1411 1410 1410 1409 1409 1408 1408 1407 1407 1406 1405 1404 1403 1402 1401 1400 1399 1398 1397 1396 1395 1394 1393 1392 1391 1389 1388 1387 1386 1385 1383 1382 1381 1380 1379 1378
1415 1414 1413 1412 1412 1411 1410 1410 1409 1408 1408 1407 1407 1406 1406 1405 1404 1403 1403 1402 1401 1400 1399 1398 1397 1396 1395 1393 1392 1391 1390 1389 1387 1386 1385 1384 1382 1381 1380 1379 1377 1376 1375 1374